COSMOS 1275 DEB, 39958

Orbit data source: Space-Track

COSMOS 1275 DEB, 39958 is space debris in LEO originally from a launch on Thu, 04 Jun 1981 UTC launched from the Plesetsk Missile And Space Complex (PKMTR). Debris objects in space refer to the collection of defunct objects orbiting the Earth. Examples of debris include non-operational satellites, rocket bodies, and fragments generated from explosions, collisions, or faulty payload assembly.

Loading next visibility...
Identifier
39958, 1981-053NU
Orbit
LEO
Country
Flag of CISCIS
Related business
Manufacturer
Unknown
Mission
Spacecraft
Bus & Motor
Unknown
Mass
Unknown
Launch date (UTC)
1981-06-04 (44 years ago)
Launch vehicle
Unknown
Launch site
Plesetsk Missile And Space Complex (PKMTR)
Object type
Payload
Rocket body
Debris
Shape & HBR
Unknown shape, 0.1 m
Radar Cross Section
Small (<0.1 m²)

Expand to show TLE details & history
Last TLE update: 4 days ago

TLE from 4 days ago
0 COSMOS 1275 DEB
1 39958U 81053NU  25284.57637367  .00001784  00000-0  18304-2 0  9994
2 39958  83.0260  35.8956 0086440  72.4241 308.6448 13.74151293568573
Epoch: 2025-10-11T13:49Z
TLE epoch observation values (Epoch: 2025-10-11T13:49:58.685Z)
Latitude
20.13707°
Longitude
170.55258°
Altitude
947.796 km
Speed
7.399 km/s
True Right ascension
02h 33m 48s
True Declination
20° 01' 45"
Sunlit
Object was in full shadow at epoch
Visualization orbit readout
Latitude
Unknown
Longitude
Unknown
Altitude
Unknown
Speed
Unknown
Apparent Right ascension
Unknown
Apparent Declination
Unknown
Sunlit
N/A
Visualization observer readout
Local Sidereal Time
13:01:49
Azimuth
Unknown
Elevation
Unknown
Doppler factor
Unknown
Orbital elements
Apogee altitude
1,045.471 km
Perigee altitude
918.232 km
Semi-major axis
7,359.988 km
Eccentricity
0.00864
Inclination
83.026°
RAAN
35.8956°
Arg. of periapsis
72.4241°
True anomaly
307.86593°
Mean anomaly
308.6448°
Eccentric anomaly
308.25589°
Mean motion
3.43738 °/min
Orbital period
104.73 mins
BSTAR
0.0018304
Loading maneuver chart data...
Computing Atmospheric mass density...

Documentation

Showing up to 5 results
|